210P/Christensen (2008)

Japanese version
Home page
Updated on March 17, 2010

---------------------------------------------------------------------

* Profile

Designation 210P/2008 X4
Re-discovery Date December 8, 2008
Magnitude
Re-discoverer A. Watson (SECCHI HI1-B images via the STEREO-B spacecraft)

* Pictures

* Orbital Elements

Epoch 2008 Nov. 30.0 TT = JDT 2454800.5
T 2008 Dec. 19.97242 TT                                 MPC
q   0.5349519            (2000.0)            P               Q
n   0.17403149     Peri.  345.78070     +0.17546683     -0.96845400
a   3.1772459      Node    93.88730     +0.91969130     +0.09712353
e   0.8316303      Incl.   10.21541     +0.35125391     +0.22948609
P   5.66

* Finding Charts

* Magnitudes Graph

        m1 = 14.0 + 5 log d + 15.0 log r

---------------------------------------------------------------------

The orbital elements are published on M.P.E.C. 2009-A01.
The charts are made with StellaNavigator Ver.2.0 for Windows (AstroArts / ASCII).
The magnitudes graphs are made with Comet for Windows.

---------------------------------------------------------------------

Copyright(C) Seiichi Yoshida (comet@aerith.net). All rights reserved.